Showing default

DOORY-SAT, 58500

Orbit data source: Space-Track

DOORY-SAT, 58500 is a payload satellite owned by Hanwha (KR) in LEO that was launched on Mon, 04 Dec 2023 UTC via an ADD TV2 launch vehicle from the Jeju Sea Launch Area (JJSLA). Payload-class satellites include a variety of spacecraft equipped with specific instruments for various scientific and technological missions. These include communications satellites like Starlink; space stations such as the ISS; scientific satellites like the Hubble; Earth observation satellites from companies like Planet Labs, Umbra, and HawkEye 360; GPS; miniature CubeSats for education and research; and military/defense satellites.

Loading next visibility...
Identifier
58500, 2023-188A
Orbit
LEO
Country
Flag of UnknownUnknown / SKOR
Related business
Manufacturer
Hanwha
Mission
Operational Commercial Radar Imaging
Bus & Motor
S-STEP, Unknown motor
Mass
80 kg wet, 80 kg dry
Launch date (UTC)
2023-12-04 (2 years ago)
Launch vehicle
ADD TV2
Launch site
Jeju Sea Launch Area (JJSLA)
Object type
Payload
Rocket body
Debris
Shape & HBR
Box, 1.0 m
Radar Cross Section
2.400 m², Medium (>0.1 m² and < 1m²)

Expand to show TLE details & history
Last TLE update: 8 hours ago

TLE from 8 hours ago
0 DOORY-SAT
1 58500U 23188A   25293.63124028  .00003254  00000-0  45525-3 0  9995
2 58500  46.9831  26.9296 0008952 330.5976  29.4413 14.79660815101509
Epoch: 2025-10-20T15:08Z
TLE epoch observation values (Epoch: 2025-10-20T15:08:59.160Z)
Latitude
-0.00004°
Longitude
130.35229°
Altitude
625.149 km
Speed
7.55 km/s
True Right ascension
01h 47m 43s
True Declination
0° 00' 00"
Sunlit
Object was in full shadow at epoch
Visualization orbit readout
Latitude
Unknown
Longitude
Unknown
Altitude
Unknown
Speed
Unknown
Apparent Right ascension
Unknown
Apparent Declination
Unknown
Sunlit
N/A
Visualization observer readout
Local Sidereal Time
17:50:39
Azimuth
Unknown
Elevation
Unknown
Doppler factor
Unknown
Orbital elements
Apogee altitude
637.92 km
Perigee altitude
625.369 km
Semi-major axis
7,009.781 km
Eccentricity
0.0009
Inclination
46.9831°
RAAN
26.9296°
Arg. of periapsis
330.5976°
True anomaly
29.49177°
Mean anomaly
29.4413°
Eccentric anomaly
29.46653°
Mean motion
3.69817 °/min
Orbital period
97.35 mins
BSTAR
0.00045525
Loading maneuver chart data...
Computing Atmospheric mass density...
Loading historical data...
Loading historical data...
Loading historical data...
Loading historical data...
Loading historical data...
Loading historical data...
Loading historical data...
Other satellites on launch #188 in the year 2023 (2023-12-04 UTC)

Documentation

Showing up to 5 results
|